"Pseudo-MPEC" for P10NLQX

Created 2019 May 21 8:07:17 UT using Find_Orb

Click here for an explanation of pseudo-MPECs

 
 Astrometry: 
     P10NLQX  C2019 05 09oq5?U,[jEc;iAstrometry4YD^D2wredacted;NE3iY3%1hc[]4rF51
     P10NLQX  C2019 05 09SqYia$R#GA6F%4XVb#i,7V1HclickDN^'b;KY^f77C9here2Y_kGF51
     P10NLQX  C2019 05 09qG0O7pfG[hl/sqMf+`KrR;kNO*?v!f`PW0p%k_qeDKFLlQfq#3scF51
     P10NLQX KC2019 05 11;HmZxI9yXIp7;/boN,At2gy^]=KVfor[fXN1wJQ2s!#h0e^8LYg^H21
     P10NLQX KC2019 05 11m7^*/c;jOsO^p).Gp\Hs$2_b$1ukIu8a3Cpv^`K1explanationXH21

Station data:
(F51) Pan-STARRS 1, Haleakala  (N20.707235 W156.255910)  US/Hawaii.
   Observers N. Primak, A. Schultz, S. Watters, J. Thiel, T. Goggia. Measurer
   PS1 Science Consortium. 1.8-m Ritchey-Chrétien + CCD.
(H21) Astronomical Research Observatory, Westfield  (N39.483057 W87.968270)
   US/Illinois. 0.76-m f/3.0 astrograph + CCD.

Orbital elements:  P10NLQX
   Perihelion 2019 Mar 4.021825 +/- 90.7 TT =  0:31:25 (JD 2458546.521825)
Epoch 2019 May 11.0 TT = JDT 2458614.5   Earth MOID: 0.1200   Ma: 0.0654
M  48.82191318 +/- 52               (J2000 ecliptic)          AutoNEOCP
n   0.71819981 +/- 0.219            Peri.  339.61929 +/- 90
a   1.23492103 +/- 0.251            Node   194.10049 +/- 39
e   0.0975601 +/- 0.128             Incl.    7.74144 +/- 7
P   1.37/501.24d           H 24.2   G  0.15   U 11.7  SR
q 1.11444193 +/- 0.224    Q 1.35540013 +/- 0.721
From 5 observations 2019 May 9-11 (40.7 hr); mean residual 0".32
Residuals in arcseconds: 
190509 F51  .37+  .39+    190509 F51  .39-  .67-    190511 H21  .14-  .13-    
190509 F51  .01+  .28+    190511 H21  .15+  .14+    

Ephemerides (geocentric):
Date (UTC) HH   RA              Dec         delta   r     elong  mag " sig PA
---- -- -- --  -------------   -----------  ------ ------ -----  --- ---- ---
2019 05 21 08  16 16 41.084   +14 48 05.79  .19561 1.1768 144.5 22.4 5408  62
2019 05 21 09  16 16 38.941   +14 48 44.72  .19569 1.1768 144.5 22.4 5462  62
2019 05 21 10  16 16 36.799   +14 49 23.51  .19576 1.1769 144.5 22.4 5516  62
2019 05 21 11  16 16 34.656   +14 50 02.16  .19584 1.1769 144.5 22.4 5570  62
2019 05 21 12  16 16 32.514   +14 50 40.67  .19592 1.1770 144.5 22.4 5625  62
2019 05 21 13  16 16 30.371   +14 51 19.04  .19599 1.1771 144.5 22.4 5680  62
2019 05 21 14  16 16 28.229   +14 51 57.27  .19607 1.1771 144.4 22.4 5736  62
2019 05 21 15  16 16 26.087   +14 52 35.36  .19615 1.1772 144.4 22.4 5792  62
2019 05 21 16  16 16 23.944   +14 53 13.31  .19623 1.1772 144.4 22.4 5849  62
2019 05 21 17  16 16 21.802   +14 53 51.12  .19630 1.1773 144.4 22.4 5906  62
2019 05 21 18  16 16 19.659   +14 54 28.79  .19638 1.1773 144.4 22.4 5963  62
2019 05 21 19  16 16 17.517   +14 55 06.33  .19646 1.1774 144.4 22.4 6021  62
2019 05 21 20  16 16 15.375   +14 55 43.72  .19654 1.1775 144.4 22.4 6080  62
2019 05 21 21  16 16 13.233   +14 56 20.98  .19661 1.1775 144.4 22.4 6138  62
2019 05 21 22  16 16 11.091   +14 56 58.09  .19669 1.1776 144.4 22.4 6198  62
2019 05 21 23  16 16 08.949   +14 57 35.07  .19677 1.1776 144.4 22.4 6258  62
2019 05 22 00  16 16 06.807   +14 58 11.90  .19685 1.1777 144.3 22.4 6318  62
2019 05 22 01  16 16 04.665   +14 58 48.60  .19693 1.1778 144.3 22.4 6379  62
2019 05 22 02  16 16 02.524   +14 59 25.16  .19701 1.1778 144.3 22.4 6440  62
2019 05 22 03  16 16 00.382   +15 00 01.57  .19708 1.1779 144.3 22.4 6502  62
2019 05 22 04  16 15 58.241   +15 00 37.85  .19716 1.1779 144.3 22.4 6564  62
2019 05 22 05  16 15 56.100   +15 01 13.99  .19724 1.1780 144.3 22.4 6627  62
2019 05 22 06  16 15 53.959   +15 01 50.00  .19732 1.1780 144.3 22.4 6690  62
2019 05 22 07  16 15 51.819   +15 02 25.86  .19740 1.1781 144.3 22.4 6754  62
2019 05 22 08  16 15 49.678   +15 03 01.58  .19748 1.1782 144.3 22.4 6818  62
2019 05 22 09  16 15 47.538   +15 03 37.17  .19756 1.1782 144.2 22.4 6883  62
2019 05 22 10  16 15 45.398   +15 04 12.61  .19764 1.1783 144.2 22.4 6948  62
2019 05 22 11  16 15 43.259   +15 04 47.92  .19771 1.1783 144.2 22.4 7014  62
2019 05 22 12  16 15 41.119   +15 05 23.09  .19779 1.1784 144.2 22.4 7080  62
2019 05 22 13  16 15 38.980   +15 05 58.12  .19787 1.1784 144.2 22.4 7147  62
2019 05 22 14  16 15 36.841   +15 06 33.01  .19795 1.1785 144.2 22.4 7215  61
2019 05 22 15  16 15 34.702   +15 07 07.77  .19803 1.1786 144.2 22.4 7283  61
2019 05 22 16  16 15 32.564   +15 07 42.38  .19811 1.1786 144.2 22.4 7351  61
2019 05 22 17  16 15 30.426   +15 08 16.86  .19819 1.1787 144.2 22.4 7421  61
2019 05 22 18  16 15 28.289   +15 08 51.20  .19827 1.1787 144.1 22.4 7490  61
2019 05 22 19  16 15 26.151   +15 09 25.40  .19835 1.1788 144.1 22.4 7561  61
2019 05 22 20  16 15 24.014   +15 09 59.46  .19843 1.1789 144.1 22.4 7631  61
2019 05 22 21  16 15 21.878   +15 10 33.38  .19851 1.1789 144.1 22.4 7703  61
2019 05 22 22  16 15 19.742   +15 11 07.17  .19859 1.1790 144.1 22.4 7775  61
2019 05 22 23  16 15 17.606   +15 11 40.81  .19867 1.1790 144.1 22.4 7847  61
2019 05 23 00  16 15 15.471   +15 12 14.32  .19875 1.1791 144.1 22.4 7921  61
2019 05 23 01  16 15 13.336   +15 12 47.69  .19883 1.1791 144.1 22.4 7994  61
2019 05 23 02  16 15 11.201   +15 13 20.93  .19891 1.1792 144.1 22.4 8069  61
2019 05 23 03  16 15 09.067   +15 13 54.02  .19899 1.1793 144.1 22.4 8144  61
2019 05 23 04  16 15 06.933   +15 14 26.98  .19908 1.1793 144.0 22.4 8219  61
2019 05 23 05  16 15 04.800   +15 14 59.80  .19916 1.1794 144.0 22.4 8296  61
2019 05 23 06  16 15 02.668   +15 15 32.48  .19924 1.1794 144.0 22.4 8372  61
2019 05 23 07  16 15 00.535   +15 16 05.02  .19932 1.1795 144.0 22.4 8450  61